カタログに戻る

STARLINK-32022

運用中通信VLEO
NORAD 60149·PAYLOAD·🇺🇸 United States

打ち上げ Jun 27, 2024 から Cape Canaveral Space Force Station

Loading…

次のパス (今後24時間)

TLE

最新Source: CelesTrak SupGP

元期: Sep 14, 2026, 21:33 UTC

1 60149C 24120Q   26257.89840278 -.00065070  00000+0 -19220-2 0  2579
2 60149  53.1580 157.9223 0001351  93.0723 109.1941 15.34430860    17

AllMySatでSTARLINK-32022をリアルタイム追跡

Download on the App Store